Weather in Belinsky

Russia / Penza Oblast     52°57′56″N   43°24′31″E
temp.,
°C
wind,
m/s
gust,
m/s
humid.,
%
clouds,
%
prec.,
mm/h
press.,
hPa
HPBL,
m
28 february, sun
sun2800:00−14nnw489490 0.0 1012165
03:00−16nnw359662 0.0 101390
06:00−16nw34960 0.0 101491
09:00−14nw48940 0.0 1015273
12:00−11nw469178 0.0 1015442
15:00−10nw469090 0.1 1016512
18:00−12nnw2394100 0.0 101724
21:00−14n239589 0.1 102020
1 march, mon
mon100:00−15n239663 0.0 102120
03:00−16n239533 0.0 102320
06:00−17nnw23940 0.0 102320
09:00−14nw12940 0.0 102576
12:00−10wnw239051 0.0 1025288
15:00−8w359374 0.0 1025320
18:00−11wsw349775 0.0 102352
21:00−9sw4119783 0.1 1022221
2 march, tue
tue200:00−4wsw71395100 0.1 1019532
03:00−4wsw81496100 0.8 1015516
06:00−3wsw81596100 1.3 1011616
09:000wsw81597100 3.1 1007813
12:000wnw81398100 1.5 1005727
15:000nw71297100 2.7 1005740
18:00−1nw6128899 0.4 1006716
21:00−3wnw5139390 0.4 1007448
3 march, wed
wed300:00−3nw6129497 0.1 1007601
03:00−5wnw5129595 0.2 1008382
06:00−5nw5129590 0.1 1008488
09:00−4nw6129291 0.3 1010707
12:00−4nw71188100 0.1 1011805
15:00−4nw81189100 0.3 1013968
18:00−5nw61388100 0.1 1014608
21:00−9nw499463 0.1 1017161
4 march, thu
thu400:00−10nw489440 0.0 1018136
03:00−11wnw349739 0.0 101863
06:00−9wsw369884 0.1 1018138
09:00−7wsw5119684 0.1 1018298
12:00−3wsw7129185 0.0 1015651
15:00−1wsw8148692 0.0 1013688
18:00−3sw71687100 0.0 1012555
21:00−2sw71787100 0.0 1010603